This is the latest recevied weather packets stored in our database for station/object N8SDR. If no packets are shown the sender has not sent any weather packets the latest 10 day(s).
| Time | Temp. | Humidity | Pressure | Rain* | Wind** | Luminosity | Snow |
|---|---|---|---|---|---|---|---|
| 1777588263 | 15.56° C | 48% | 1011.8 hPa | 0 mm | - | 240 W/m² | - |
| 1777587959 | 16.11° C | 47% | 1011.7 hPa | 0 mm | - | 255 W/m² | - |
| 1777587655 | 15.56° C | 47% | 1011.9 hPa | 0 mm | - | 269 W/m² | - |
| 1777587355 | 15° C | 48% | 1011.8 hPa | 0 mm | - | 273 W/m² | - |
| 1777587051 | 15.56° C | 48% | 1011.8 hPa | 0 mm | - | 103 W/m² | - |
| 1777586747 | 15.56° C | 47% | 1011.8 hPa | 0 mm | - | 324 W/m² | - |
| 1777586443 | 15.56° C | 48% | 1012 hPa | 0 mm | - | 360 W/m² | - |
| 1777586143 | 15.56° C | 47% | 1011.9 hPa | 0 mm | - | 115 W/m² | - |
| 1777585841 | 15.56° C | 47% | 1012.2 hPa | 0 mm | - | 92 W/m² | - |
| 1777585541 | 15° C | 47% | 1011.9 hPa | 0 mm | - | 94 W/m² | - |
| 1777585237 | 15° C | 47% | 1012.1 hPa | 0 mm | - | 381 W/m² | - |
| 1777584932 | 15° C | 49% | 1011.9 hPa | 0 mm | - | 409 W/m² | - |
| 1777584630 | 16.11° C | 47% | 1012 hPa | 0 mm | - | 432 W/m² | - |
| 1777584326 | 16.11° C | 48% | 1012 hPa | 0 mm | - | 462 W/m² | - |
| 1777584022 | 15.56° C | 48% | 1012 hPa | 0 mm | - | 446 W/m² | - |
| 1777583717 | 15.56° C | 48% | 1012 hPa | 0 mm | - | 455 W/m² | - |
| 1777583416 | 15.56° C | 48% | 1012.1 hPa | 0 mm | - | 517 W/m² | - |
| 1777583115 | 15.56° C | 47% | 1012.3 hPa | 0 mm | - | 576 W/m² | - |
| 1777582812 | 15° C | 47% | 1012 hPa | 0 mm | - | 396 W/m² | - |
| 1777582509 | 15.56° C | 48% | 1012.2 hPa | 0 mm | - | 513 W/m² | - |
| 1777582203 | 15.56° C | 48% | 1012.3 hPa | 0 mm | - | 651 W/m² | - |
| 1777581901 | 15.56° C | 48% | 1012.3 hPa | 0 mm | - | 660 W/m² | - |
| 1777581596 | 13.89° C | 48% | 1012.2 hPa | 0 mm | - | 623 W/m² | - |
| 1777581291 | 14.44° C | 46% | 1012.2 hPa | 0 mm | - | 153 W/m² | - |
| 1777580986 | 15° C | 47% | 1012.4 hPa | 0 mm | - | 654 W/m² | - |
* Rain latest hour (hover to see other rain measurements)
** Current wind speed in m/s (hover to see current wind gust speed)